{"data":{"norad_id":52158,"epoch":"2026-09-20T00:41:18.844512Z","epoch_age_seconds":161577,"freshness":"FRESH","line1":"1 52158U 22033B   26263.02869033  .00001048  00000+0  12796-3 0  9991","line2":"2 52158  97.8159 337.6237 0011104  20.2864 339.8791 14.85363152241412","mean_motion":14.85363152,"eccentricity":0.0011104,"inclination_deg":97.8159,"raan_deg":337.6237,"arg_perigee_deg":20.2864,"mean_anomaly_deg":339.8791,"bstar":0.00012796,"rev_number":24141,"period_min":96.94598913815,"perigee_km":604.68388417565,"apogee_km":620.20857140792,"semimajor_km":6990.5832277918,"source":"CELESTRAK","updated_at":"2026-09-21T09:00:08.492407Z"}}